Weather History for Wausau, WI

Change the Weather History Date:

Wednesday, January 16, 2013

  Actual Average Record
Temperature  
Mean Temperature 24 °F 14 °F  
Max Temperature 31 °F 23 °F 45 °F (1973)
Min Temperature 16 °F 6 °F -28 °F (1972)
Degree Days  
Heating Degree Days 41 51  
Month to date heating degree days 721 810  
Since 1 July heating degree days 3714 4096  
Cooling Degree Days 0 0  
Month to date cooling degree days 0 0  
Year to date cooling degree days 0 0  
Moisture  
Dew Point 16 °F    
Average Humidity 70    
Maximum Humidity 85    
Minimum Humidity 55    
Precipitation  
Precipitation 0.01 in 0.03 in 0.67 in (1980)
Month to date precipitation 0.26 0.55  
Year to date precipitation 0.26 0.55  
Snow  
Snow 0.10 in 0.40 in 7.90 in (1967)
Month to date snowfall 0.2 6.9  
Since 1 July snowfall 24.3 29.1  
Snow Depth 2.00 in    
Sea Level Pressure  
Sea Level Pressure 29.81 in    
Wind  
Wind Speed 11 mph (West)    
Max Wind Speed 21 mph    
Max Gust Speed 29 mph    
Visibility 8 miles    
Events Snow    
T = Trace of Precipitation, MM = Missing Value Source: NWS Daily Summary

Daily Weather History Graph

Daily Weather History Graph

Search for Another Location

Airport:

Trip Planner

Search our weather history database for the weather conditions in past years. The results will help you decide how hot, cold, wet, or windy it might be!

Date:

Astronomy

Jan. 16, 2013 Rise Set
Actual Time 7:32 AM CST 4:45 PM CST
Civil Twilight 6:59 AM CST 5:17 PM CST
Nautical Twilight 6:23 AM CST 5:53 PM CST
Astronomical Twilight 5:48 AM CST 6:28 PM CST
Moon 9:52 AM CST (1/16) 10:54 PM CST (1/16)
Length of Visible Light 10h 18m
Length of Day
9h 12m
Waxing Crescent, 28% of the Moon is Illuminated
Jan 16
Waxing Crescent
Jan 18
First Quarter
Jan 26
Full
Feb 3
Last Quarter
Feb 10
New

Hourly Weather History & Observations

Time (CST) Temp. Windchill Dew Point Humidity Pressure Visibility Wind Dir Wind Speed Gust Speed Precip Events Conditions
12:54 AM 19.0 °F 9.0 °F 10.9 °F 71% 29.93 in 10.0 mi SSW 8.1 mph - N/A   Clear
1:54 AM 19.0 °F 6.8 °F 10.9 °F 71% 29.82 in 10.0 mi SSW 11.5 mph - N/A   Clear
2:54 AM 19.9 °F 7.3 °F 10.9 °F 68% 29.78 in 10.0 mi SSW 12.7 mph - N/A   Clear
3:54 AM 19.9 °F 6.7 °F 10.9 °F 68% 29.80 in 10.0 mi SSW 13.8 mph - N/A   Clear
4:54 AM 19.9 °F 6.7 °F 10.9 °F 68% 29.74 in 10.0 mi SSW 13.8 mph - N/A   Mostly Cloudy
5:54 AM 21.0 °F 9.3 °F 12.0 °F 68% 29.72 in 10.0 mi SSW 11.5 mph - N/A   Overcast
6:54 AM 21.9 °F 7.3 °F 15.1 °F 75% 29.68 in 7.0 mi SSW 18.4 mph 24.2 mph 0.00 in Snow Light Snow
7:50 AM 23.0 °F 11.1 °F 15.8 °F 74% 29.62 in 2.0 mi SW 12.7 mph 25.3 mph 0.00 in Snow Light Snow
7:54 AM 23.0 °F 11.7 °F 16.0 °F 74% 29.69 in 1.8 mi SW 11.5 mph - 0.00 in Snow Light Snow
8:07 AM 23.0 °F 11.7 °F 17.6 °F 80% 29.63 in 3.0 mi SW 11.5 mph - 0.00 in Snow Light Snow
8:15 AM 23.0 °F 10.6 °F 17.6 °F 80% 29.63 in 6.0 mi SW 13.8 mph 20.7 mph 0.00 in   Haze
8:24 AM 23.0 °F 11.7 °F 17.6 °F 80% 29.63 in 8.0 mi SW 11.5 mph - 0.00 in   Overcast
8:37 AM 23.0 °F 11.7 °F 17.6 °F 80% 29.63 in 4.0 mi SW 11.5 mph - 0.00 in   Haze
8:54 AM 23.0 °F 14.7 °F 18.0 °F 81% 29.70 in 8.0 mi SW 6.9 mph - 0.00 in   Overcast
9:34 AM 24.8 °F 14.0 °F 19.4 °F 80% 29.64 in 10.0 mi WSW 11.5 mph 19.6 mph N/A   Overcast
9:54 AM 25.0 °F 15.5 °F 19.0 °F 78% 29.70 in 10.0 mi WSW 9.2 mph 18.4 mph N/A   Overcast
10:54 AM 26.1 °F 15.6 °F 21.0 °F 81% 29.70 in 7.0 mi WSW 11.5 mph - N/A   Overcast
11:54 AM 27.0 °F 16.1 °F 23.0 °F 85% 29.70 in 8.0 mi West 12.7 mph - N/A   Overcast
12:54 PM 28.9 °F 18.2 °F 24.1 °F 82% 29.70 in 8.0 mi WNW 13.8 mph - N/A   Overcast
1:54 PM 30.0 °F 17.9 °F 25.0 °F 82% 29.73 in 9.0 mi WNW 18.4 mph 24.2 mph N/A   Overcast
2:50 PM 30.2 °F 21.3 °F 24.8 °F 80% 29.70 in 10.0 mi WNW 10.4 mph 18.4 mph N/A   Overcast
2:54 PM 30.0 °F 20.5 °F 24.1 °F 79% 29.76 in 10.0 mi WNW 11.5 mph - N/A   Overcast
3:54 PM 30.0 °F 20.5 °F 24.1 °F 79% 29.80 in 5.0 mi WNW 11.5 mph - 0.00 in   Haze
4:54 PM 30.0 °F 22.4 °F 24.1 °F 79% 29.84 in 10.0 mi WNW 8.1 mph - 0.00 in   Mostly Cloudy
5:54 PM 28.9 °F 20.4 °F 21.0 °F 72% 29.89 in 10.0 mi NW 9.2 mph - N/A   Overcast
6:54 PM 28.9 °F 20.4 °F 19.9 °F 69% 29.94 in 10.0 mi NW 9.2 mph - N/A   Overcast
7:07 PM 28.4 °F 18.5 °F 15.8 °F 59% 29.89 in 10.0 mi NNW 11.5 mph 19.6 mph N/A   Overcast
7:20 PM 28.4 °F 19.1 °F 14.0 °F 55% 29.89 in 10.0 mi NNW 10.4 mph 18.4 mph N/A   Overcast
7:54 PM 25.0 °F 14.8 °F 10.9 °F 55% 29.98 in 10.0 mi NW 10.4 mph - N/A   Partly Cloudy
8:54 PM 23.0 °F 13.1 °F 10.0 °F 58% 30.04 in 10.0 mi NNW 9.2 mph - N/A   Partly Cloudy
9:54 PM 19.9 °F 10.1 °F 9.0 °F 62% 30.05 in 10.0 mi NW 8.1 mph - N/A   Clear
10:40 PM 19.4 °F 7.9 °F 6.8 °F 58% 30.02 in 10.0 mi NW 10.4 mph - N/A   Mostly Cloudy
10:54 PM 18.0 °F 6.1 °F 7.0 °F 62% 30.09 in 10.0 mi NW 10.4 mph 17.3 mph N/A   Overcast
11:18 PM 17.6 °F 6.4 °F 5.0 °F 58% 30.03 in 10.0 mi NW 9.2 mph - N/A   Scattered Clouds
11:54 PM 16.0 °F 6.3 °F 6.1 °F 65% 30.12 in 10.0 mi WNW 6.9 mph - N/A   Clear